Regional Weather Roundup
Issued by NWS Huntsville, AL

Home | Current Version | Previous Version | Text Only | Print | Product List | Glossary On
Versions: 1 2 3 4 5 6 7 8 9 10 11 12 13 14 15 16 17 18 19 20 21 22 23 24 25 26 27 28 29 30 31 32 33 34 35 36 37 38 39 40 41 42 43 44 45 46 47 48 49 50
000
ASUS44 KHUN 241010
RWRHUN

WEATHER ROUNDUP FOR THE TENNESSEE VALLEY
NATIONAL WEATHER SERVICE HUNTSVILLE AL
500 AM CDT SUN JUL 24 2016

ALZ001>004-241100-
NORTHWEST ALABAMA

CITY           SKY/WX    TMP DP  RH WIND       PRES   REMARKS
COURTLAND HCN    N/A     73 N/A N/A CALM        N/A
RUSSELLVILLE     N/A     70 N/A N/A MISG        N/A
SHOALS AIRPORT CLEAR     74  70  87 CALM      30.00R
SHOALS TVA RES   N/A     72 N/A N/A MISG        N/A
$$

ALZ005>007-016-241100-
NORTH CENTRAL ALABAMA

CITY           SKY/WX    TMP DP  RH WIND       PRES   REMARKS
CULLMAN AG STN   N/A     72 N/A N/A CALM        N/A
DECATUR AP     CLEAR     73  72  96 CALM      30.01R
HUNTSVILLE AP  CLEAR     75  70  84 SE3       30.01R
MERIDIANVILLE  CLEAR     72  66  83 CALM      30.02R HAZE
REDSTONE ARSN  CLEAR     74  72  96 S5        30.00S
VINEMONT AP    FAIR      72  71  94 CALM      30.04S
$$

ALZ008>010-241100-
NORTHEAST ALABAMA

CITY           SKY/WX    TMP DP  RH WIND       PRES   REMARKS
ALBERTVILLE    CLEAR     72  72 100 CALM      30.02S FOG
FORT PAYNE     PTCLDY    70  66  88 CALM      30.03S FOG
SCOTTSBORO AP  CLOUDY    72  72 100 CALM      30.04R
SCOTTSBORO HCN   N/A     70 N/A N/A MISG        N/A
VALLEY HEAD      N/A     68 N/A N/A MISG        N/A
$$

TNZ076-096-097-241100-
SOUTHEASTERN MIDDLE TENNESSEE

CITY           SKY/WX    TMP DP  RH WIND       PRES   REMARKS
TULLAHOMA      CLEAR     72  70  94 CALM      30.04R
WINCHESTER     CLEAR     72  70  94 CALM      30.03R
$$

...SURROUNDING SITES...

CITY           SKY/WX    TMP DP  RH WIND       PRES   REMARKS
ATLANTA        CLEAR     76  73  91 CALM      30.03S
ANNISTON       PTCLDY    74  71  91 E3        30.03R
BIRMINGHAM     PTCLDY    77  74  90 CALM      30.03S
CHATTANOOGA    PTCLDY    74  71  91 CALM      30.03R
DALTON         FOG       72  72 100 CALM      30.03S VSB 1/4
GADSDEN        CLEAR     71  71 100 CALM      30.03R
GOLDEN TRNGL   CLEAR     77  72  83 E3        29.96S
HALEYVILLE     FAIR      73  71  93 SE3       30.03S
JACKSON TN     PTCLDY    75  75 100 CALM      29.96S
MEMPHIS        TSTM      76  73  91 SE9       29.96R FOG
NASHVILLE      MOCLDY    73  69  87 SE3       30.00R
OXFORD MS      FAIR      75  73  94 SE6       29.99S
ROME           FOG       72  71  97 CALM      30.03R VSB 1/4
SAVANNAH       PTCLDY    75  73  94 CALM      29.97S
TUPELO         CLEAR     76  73  91 CALM      29.97S
TUSCALOOSA     CLOUDY    78  77  96 CALM      29.99R
$$

...GULF COAST WEATHER...

CITY           SKY/WX    TMP DP  RH WIND       PRES   REMARKS
GULFPORT       CLEAR     78  76  93 CALM      29.94R
PASCAGOULA     CLEAR     75  75 100 CALM      29.95R FOG
MOBILE         CLEAR     76  74  93 CALM      29.97S
GULF SHORES    MOSUNNY   77  77 100 CALM      29.96R
PENSACOLA      MOCLDY    79  74  84 CALM      29.96R
DESTIN         MOCLDY    80  78  94 NE5       29.97R
PANAMA CITY    PTCLDY    79  76  92 E5        29.97S
APPALACHICOLA  CLOUDY    82  78  88 S10       29.97R HX  91
$$




USA.gov is the U.S. government's official web portal to all federal, state and local government web resources and services.